This is the latest recevied weather packets stored in our database for station/object DG9BJA-13. If no packets are shown the sender has not sent any weather packets the latest 1 day(s).
| Time | Temp. | Humidity | Pressure | Rain* | Wind** | Luminosity | Snow |
|---|---|---|---|---|---|---|---|
| 1777980976 | 8.89° C | 91% | 1010.9 hPa | 0 mm | 2.24 m/s, 23° | 118 W/m² | - |
| 1777980376 | 8.89° C | 91% | 1011 hPa | 0 mm | 1.79 m/s, 23° | 116 W/m² | - |
| 1777979776 | 8.89° C | 90% | 1011 hPa | 0 mm | 2.24 m/s, 23° | 128 W/m² | - |
| 1777979176 | 8.89° C | 90% | 1011 hPa | 0 mm | 1.79 m/s, 23° | 111 W/m² | - |
| 1777978576 | 8.89° C | 90% | 1011.1 hPa | 0 mm | 2.68 m/s, 23° | 102 W/m² | - |
| 1777977976 | 8.89° C | 90% | 1011.1 hPa | 0 mm | 1.79 m/s, 45° | 113 W/m² | - |
| 1777977375 | 8.89° C | 90% | 1011.2 hPa | 0 mm | 1.34 m/s, 0° | 118 W/m² | - |
| 1777976776 | 8.89° C | 91% | 1011.3 hPa | 0 mm | 2.24 m/s, 0° | 116 W/m² | - |
| 1777976175 | 8.89° C | 91% | 1011.3 hPa | 0 mm | 1.79 m/s, 23° | 109 W/m² | - |
| 1777975576 | 8.89° C | 91% | 1011.4 hPa | 0 mm | 1.79 m/s, 23° | 105 W/m² | - |
| 1777974976 | 8.33° C | 91% | 1011.4 hPa | 0 mm | 2.24 m/s, 45° | 93 W/m² | - |
| 1777974375 | 8.33° C | 91% | 1011.4 hPa | 0 mm | 2.68 m/s, 23° | 118 W/m² | - |
| 1777973776 | 8.33° C | 92% | 1011.4 hPa | 0 mm | 2.68 m/s, 0° | 109 W/m² | - |
| 1777973175 | 8.33° C | 92% | 1011.5 hPa | 0 mm | 2.68 m/s, 23° | 132 W/m² | - |
| 1777972575 | 8.33° C | 92% | 1011.5 hPa | 0 mm | 3.13 m/s, 23° | 104 W/m² | - |
| 1777971975 | 8.33° C | 93% | 1011.5 hPa | 0 mm | 2.68 m/s, 0° | 90 W/m² | - |
| 1777971375 | 8.33° C | 93% | 1011.5 hPa | 0 mm | 3.13 m/s, 0° | 104 W/m² | - |
| 1777970775 | 8.33° C | 94% | 1011.5 hPa | 0 mm | 1.79 m/s, 23° | 100 W/m² | - |
| 1777970175 | 7.78° C | 94% | 1011.5 hPa | 0 mm | 2.24 m/s, 23° | 93 W/m² | - |
| 1777969577 | 7.78° C | 94% | 1011.5 hPa | 0 mm | 1.79 m/s, 0° | 127 W/m² | - |
| 1777968977 | 7.78° C | 95% | 1011.5 hPa | 0 mm | 2.68 m/s, 0° | 121 W/m² | - |
| 1777968377 | 8.33° C | 95% | 1011.5 hPa | 0 mm | 2.24 m/s, 0° | 153 W/m² | - |
| 1777967777 | 7.78° C | 95% | 1011.5 hPa | 0 mm | 2.24 m/s, 23° | 174 W/m² | - |
| 1777967177 | 7.78° C | 95% | 1011.5 hPa | 0 mm | 1.79 m/s, 0° | 113 W/m² | - |
| 1777966577 | 7.78° C | 95% | 1011.6 hPa | 0 mm | 3.13 m/s, 23° | 83 W/m² | - |
* Rain latest hour (hover to see other rain measurements)
** Current wind speed in m/s (hover to see current wind gust speed)